Del Bajio, Mexico

12:07 PM CDT on September 26, 2017 (GMT -0500)
De Guanajuato International

Weather History for MMLO - October, 2013

Change the Weather History Date:

Friday, October 25, 2013

  Actual Average Record
Temperature  
Mean Temperature 63 °F -  
Max Temperature 82 °F 78 °F 87 °F (2008)
Min Temperature 44 °F 50 °F 37 °F (1999)
Degree Days  
Heating Degree Days 2    
Growing Degree Days 13 (Base 50)    
Moisture  
Dew Point 40 °F    
Average Humidity 51    
Maximum Humidity 100    
Minimum Humidity 15    
Precipitation  
Precipitation 0.00 in - - ()
Sea Level Pressure  
Sea Level Pressure 30.20 in    
Wind  
Wind Speed 6 mph ()    
Max Wind Speed 12 mph    
Max Gust Speed -    
Visibility 9.0 miles    
Events      
Averages and records for this station are not official NWS values.
T = Trace of Precipitation, MM = Missing Value Source: Averaged Metar Reports

Daily Weather History Graph

Daily Weather History Graph

Search for Another Location

Airport or City:

Trip Planner

Search our weather history database for the weather conditions in past years. The results will help you decide how hot, cold, wet, or windy it might be!

Date:

Astronomy

Oct. 25, 2013 Rise Set
Actual Time 7:45 AM CDT 7:14 PM CDT
Civil Twilight 7:22 AM CDT 7:36 PM CDT
Nautical Twilight 6:56 AM CDT 8:02 PM CDT
Astronomical Twilight 6:30 AM CDT 8:28 PM CDT
Moon No Moon Rise 1:15 PM CDT (10/25)
Length of Visible Light 12h 13m
Length of Day
11h 28m
Waning Gibbous, 62% of the Moon is Illuminated
Oct 25
Waning Gibbous
Oct 26
Last Quarter
Nov 3
New
Nov 9
First Quarter
Nov 17
Full

Hourly Weather History & Observations

Time (CDT) Temp. Windchill Dew Point Humidity Pressure Visibility Wind Dir Wind Speed Gust Speed Precip Events Conditions
12:49 AM 55.4 °F - 32.0 °F 41% 29.98 in 8.0 mi ENE 10.4 mph - N/A   Clear
1:41 AM 53.6 °F - 33.8 °F 47% 30.32 in 8.0 mi ENE 9.2 mph - N/A   Clear
3:44 AM 51.8 °F - 39.2 °F 62% 29.97 in 8.0 mi ENE 6.9 mph - N/A   Clear
4:43 AM 51.8 °F - 37.4 °F 58% 30.30 in 8.0 mi East 9.2 mph - N/A   Clear
5:43 AM 46.4 °F 42.4 °F 39.2 °F 76% 30.30 in 8.0 mi East 8.1 mph - N/A   Clear
6:50 AM 46.4 °F 42.9 °F 39.2 °F 76% 30.06 in 8.0 mi NE 6.9 mph - N/A   Partly Cloudy
7:45 AM 44.6 °F 43.1 °F 39.2 °F 81% 30.33 in 9.0 mi South 3.5 mph - N/A   Mostly Cloudy
8:46 AM 50.0 °F - 41.0 °F 71% 30.36 in 9.0 mi Calm Calm - N/A   Mostly Cloudy
9:46 AM 57.2 °F - 57.2 °F 100% 30.14 in 10.0 mi Calm Calm - N/A   Mostly Cloudy
10:43 AM 64.4 °F - 39.2 °F 40% 30.39 in 10.0 mi Calm Calm - N/A   Mostly Cloudy
11:48 AM 69.8 °F - 35.6 °F 28% 30.36 in 10.0 mi Calm Calm - N/A   Mostly Cloudy
12:48 PM 71.6 °F - 35.6 °F 27% 30.01 in 10.0 mi SSW 6.9 mph - N/A   Mostly Cloudy
1:44 PM 75.2 °F - 37.4 °F 25% 30.30 in 10.0 mi South 5.8 mph - N/A   Mostly Cloudy
2:40 PM 78.8 °F - 32.0 °F 18% 30.27 in 10.0 mi SSW 5.8 mph - N/A   Mostly Cloudy
3:55 PM 80.6 °F - 32.0 °F 17% 29.86 in 10.0 mi South 4.6 mph - N/A   Mostly Cloudy
4:40 PM 82.4 °F - 30.2 °F 15% 30.24 in 10.0 mi ESE 4.6 mph - N/A   Mostly Cloudy
6:52 PM 71.6 °F - 39.2 °F 31% 29.94 in 10.0 mi ENE 4.6 mph - N/A   Mostly Cloudy
7:42 PM 64.4 °F - 44.6 °F 49% 30.27 in 8.0 mi ENE 9.2 mph - N/A   Mostly Cloudy
8:51 PM 64.4 °F - 46.4 °F 52% 30.30 in 9.0 mi NE 11.5 mph - N/A   Mostly Cloudy
9:50 PM 60.8 °F - 48.2 °F 63% 30.08 in 8.0 mi NE 11.5 mph - N/A   Scattered Clouds
10:47 PM 57.2 °F - 48.2 °F 72% 30.33 in 8.0 mi ENE 10.4 mph - N/A   Scattered Clouds
11:52 PM 55.4 °F - 48.2 °F 77% 30.33 in 8.0 mi ENE 6.9 mph - N/A   Scattered Clouds